sat.trackr.live / text

‹ back to catalog

HULIANWANG DIGUI-40

NORAD 65043 · 2025-162A

PAYLOAD ACTIVE UNKNOWN

§ Identity

Operator
Country
PRC
Launch date
2025-07-30
Launch site
WSC
Launch vehicle
Mass (kg)
RCS (m²)

External: N2YO · Heavens-Above · Gunter

§ Orbital elements

Epoch: 2026-05-25T02:03:52.924608Z

Period
108.33 min
Inclination
50.0012°
Eccentricity
0.0000477
Mean motion
13.29323839 rev/d
Perigee alt
1,149.0 km
Apogee alt
1,149.7 km
Semi-major
7,527.5 km
B*
4.7963e-5
RAAN
348.8008°
Arg perigee
43.5442°
Mean anomaly
316.5467°
Rev number
4,027

§ Raw data

HULIANWANG DIGUI-401 65043U 25162A   26145.08602922 -.00000102  00000+0  47963-4 0  99972 65043  50.0012 348.8008 0000477  43.5442 316.5467 13.29323839 40277

JSON: /api/v1/satellites/65043 · /tle

For live sub-satellite position, see the globe view (requires WebGL).

§ Visibility from observer

Set your observer location to see the next 7 days of passes ≥ 10°. The values pass through the URL so the page stays shareable.

No JS? Fill the form by hand. The geolocation button needs JavaScript.